[[{"header":{"parameterUnit":"m.s-1","parameterCategory":1,"la1":30.2991,"la2":30.254,"lo1":-89.0895,"lo2":-89.0444,"dy":0.0017,"dx":0.0017,"nx":28,"ny":28,"refTime":"2023-09-17T03:00:00:Z","depth":0,"parameterNumber":2,"parameterNumberName":"U-component_of_WINDS"},"data":[0,0,0,0,0,0,0,0,0,0,0,0,0,0,0,0,0,0,0,0,0,0,0,0,0,0,0,0,0,0,0,0,0,0,0,0,0,0,0,0,0,0,0,0,0,0,0,0,0,0,0,0,0,0,0,0,0,0,1.5654,1.5654,0,1.566,1.566,1.566,1.5588,1.5586,1.5584,1.5582,1.5586,1.5588,1.559,0,0,0,0,0,0,0,0,0,0,0,0,0,1.5579,1.5581,1.5654,1.5654,1.5655,1.566,1.566,1.566,1.5589,1.5586,1.5584,1.5582,1.5585,1.5587,1.559,0,0,0,0,0,0,0,0,0,0,0,0,0,1.5601,1.5582,1.5654,1.562,1.5616,1.566,1.566,1.566,1.5589,1.5586,1.5583,1.558,1.5584,1.5587,1.559,1.5666,0,0,1.5599,1.56,0,0,0,0,0,0,0,0,1.56,1.5604,1.5625,1.5622,1.5619,1.562,1.5635,1.5662,1.559,1.5599,1.5582,1.5579,1.56,1.5601,1.5608,1.5667,1.5667,1.5599,1.5601,1.5602,1.5603,0,0,0,0,0,0,0,1.5599,1.5603,1.5656,1.5625,1.5621,1.5603,1.5603,1.564,1.5616,1.5598,1.5593,1.5595,1.5597,1.5606,1.5608,1.5667,1.5599,1.5602,1.5603,1.5604,1.5788,1.5791,0,0,0,0,0,0,1.5602,1.5603,1.5656,1.5657,1.5602,1.5607,1.5606,1.5623,1.5615,1.5611,1.5597,1.5592,1.5602,1.5605,1.5608,1.5696,1.5602,1.5605,1.5606,1.5785,1.5789,1.5792,0,0,0,0,0,0,1.5601,1.5608,1.5656,1.5628,1.5633,1.5611,1.563,1.5624,1.5633,1.5615,1.561,1.5611,1.56,1.5604,1.5653,1.5696,1.5606,1.5609,1.5781,1.5786,1.579,1.5875,0,0,0,0,0,0,1.5599,1.5608,1.5637,1.5629,1.5635,1.5702,1.5633,1.5627,1.5638,1.5631,1.5626,1.5622,1.5598,1.5649,1.5655,1.5698,1.5611,1.5777,1.5783,1.5789,1.5868,1.5882,1.5894,0,0,0,0,0,1.5597,1.566,1.5639,1.5646,1.5671,1.5704,1.5707,1.5679,1.5642,1.5671,1.5659,1.5622,1.569,1.5654,1.5661,1.5705,1.5774,1.5781,1.5788,1.5862,1.5879,1.5893,0,0,0,0,0,0,1.5671,1.5658,1.5635,1.5697,1.5703,1.5692,1.5727,1.5698,1.5713,1.5705,1.5669,1.5668,1.5723,1.5719,1.5679,1.5779,1.5725,1.5734,1.5779,1.5795,1.5808,1.5807,1.5613,0,0,0,0,0,1.5696,1.5725,1.5711,1.5768,1.5772,1.575,1.5763,1.5741,1.5745,1.5746,1.5738,1.5742,1.5764,1.578,1.5799,1.5867,1.5865,1.5901,1.5914,1.5925,1.5932,1.5968,1.5984,1.5815,1.5815,1.5815,0,0,1.5745,1.5741,1.5761,1.5783,1.5784,1.5814,1.5752,1.5786,1.5808,1.5751,1.5797,1.5791,1.5793,1.5852,1.5878,1.5851,1.5979,1.5934,1.5942,1.5944,1.5977,1.5993,1.6007,1.582,1.5819,1.5818,0,0,1.585,1.5851,1.5898,1.5901,1.5905,1.589,1.5902,1.5896,1.589,1.5936,1.5894,1.5919,1.5958,1.5962,1.5968,1.6077,1.6043,1.6084,1.6151,1.6186,1.6199,1.6211,1.6249,1.6263,1.6092,1.6092,1.6093,0,1.5911,1.5955,1.5926,1.5964,1.5974,1.5926,1.5973,1.5977,1.5986,1.5994,1.5964,1.6013,1.6011,1.607,1.6097,1.6104,1.6115,1.6084,1.62,1.6211,1.6222,1.6257,1.6272,1.6097,1.6097,1.6096,1.6096,0,1.6029,1.6061,1.6099,1.6111,1.6125,1.6167,1.6144,1.6162,1.614,1.6128,1.6175,1.6171,1.6189,1.6202,1.618,1.6258,1.6241,1.6206,1.6152,1.6243,1.6276,1.629,1.6104,1.6103,1.6101,1.61,0,0,1.618,1.6177,1.6191,1.6196,1.6197,1.622,1.626,1.6279,1.6295,1.6304,1.6336,1.6371,1.6339,1.6347,1.6325,1.6356,1.6442,1.6317,1.6316,1.634,1.6528,1.6553,1.657,1.642,1.6422,1.6424,1.6527,0,1.6282,1.6351,1.6327,1.6397,1.6426,1.6381,1.6416,1.642,1.6411,1.6433,1.6422,1.6447,1.6403,1.6407,1.6436,1.6425,1.6479,1.6417,1.6449,1.645,1.6449,1.6587,1.6615,1.6712,1.654,1.6542,1.6544,0,1.641,1.6425,1.6499,1.6496,1.6507,1.6539,1.6554,1.6577,1.658,1.6571,1.6581,1.6552,1.6591,1.6538,1.659,1.6549,1.656,1.6557,1.656,1.6561,1.6502,1.6591,1.6742,1.6756,1.6564,1.6562,1.6561,0,1.6512,1.6551,1.66,1.6606,1.6603,1.6627,1.6627,1.6628,1.6641,1.6654,1.6662,1.668,1.6689,1.6703,1.668,1.6644,1.6736,1.6681,1.6728,1.6729,1.6749,1.6748,1.6903,1.6758,1.6758,1.6758,1.6757,0,1.6628,1.6675,1.6646,1.6676,1.6727,1.6698,1.6749,1.6744,1.6746,1.6774,1.6736,1.6763,1.6731,1.6754,1.6737,1.6783,1.6787,1.678,1.6775,1.6783,1.6784,1.6789,1.6782,1.6761,1.6761,1.676,1.6759,0,1.675,1.6733,1.6783,1.6778,1.6777,1.6815,1.681,1.6837,1.6826,1.6861,1.6868,1.6849,1.6875,1.6854,1.6879,1.6867,1.6928,1.6913,1.6927,1.6923,1.6972,1.6967,1.7135,1.7155,1.6998,1.7,1.7001,0,1.6824,1.6859,1.6858,1.6875,1.6878,1.6905,1.6918,1.6892,1.6907,1.6915,1.6941,1.6965,1.6981,1.7025,1.7013,1.7032,1.7017,1.7075,1.702,1.7027,1.7017,1.7015,1.7018,1.7086,1.7087,1.7089,1.709,0,1.6958,1.6948,1.697,1.6989,1.7007,1.702,1.7031,1.7046,1.7019,1.7039,1.7066,1.7079,1.7105,1.7128,1.7144,1.7143,1.7112,1.7108,1.712,1.7128,1.7135,1.7131,1.6957,1.7104,1.7102,1.7101,1.7101,1.71,1.7057,1.7087,1.7091,1.7116,1.7122,1.7133,1.7159,1.7151,1.7173,1.7193,1.7177,1.7209,1.7212,1.723,1.7233,1.7257,1.7233,1.7251,1.7255,1.7259,1.7266,1.7132,1.726,1.726,1.7259,1.7259,1.7259,0,1.7188,1.719,1.7214,1.723,1.7251,1.7222,1.7232,1.725,1.728,1.7286,1.7304,1.7335,1.7358,1.7349,1.7369,1.739,1.7377,1.7396,1.7394,1.7394,1.7287,1.7274,1.7407,1.7407,1.7407,1.7407,1.7407,1.7407,1.7259,1.7307,1.7298,1.7349,1.7349,1.7381,1.739,1.7399,1.7405,1.7441,1.7461,1.7455,1.7455,1.7475,1.7495,1.7491,1.75,1.7525,1.7517,1.7416,1.7402,1.7388,1.7375,1.7527,1.7527,1.7621,1.7622,1.7623]},{"header":{"parameterUnit":"m.s-1","parameterCategory":1,"la1":30.2991,"la2":30.254,"lo1":-89.0895,"lo2":-89.0444,"dy":0.0017,"dx":0.0017,"nx":28,"ny":28,"refTime":"2023-09-17T03:00:00:Z","depth":0,"parameterNumber":3,"parameterNumberName":"V-component_of_WINDS"},"data":[0,0,0,0,0,0,0,0,0,0,0,0,0,0,0,0,0,0,0,0,0,0,0,0,0,0,0,0,0,0,0,0,0,0,0,0,0,0,0,0,0,0,0,0,0,0,0,0,0,0,0,0,0,0,0,0,0,0,3.3821,3.3821,0,3.3794,3.3793,3.3793,3.3725,3.3723,3.3722,3.372,3.3694,3.3694,3.3695,0,0,0,0,0,0,0,0,0,0,0,0,0,3.3815,3.3815,3.3821,3.3821,3.382,3.3794,3.3793,3.3793,3.3725,3.3723,3.3721,3.372,3.3693,3.3694,3.3695,0,0,0,0,0,0,0,0,0,0,0,0,0,3.3805,3.3815,3.3821,3.3783,3.3779,3.3794,3.3793,3.3793,3.3725,3.3723,3.3721,3.3719,3.3693,3.3694,3.3695,3.3744,0,0,3.3698,3.3698,0,0,0,0,0,0,0,0,3.3806,3.3806,3.3789,3.3786,3.3782,3.376,3.3781,3.3777,3.3726,3.3746,3.372,3.3718,3.3718,3.3716,3.3716,3.3743,3.3742,3.3698,3.3698,3.3699,3.3699,0,0,0,0,0,0,0,3.3807,3.3806,3.381,3.3789,3.3784,3.3768,3.3764,3.378,3.3744,3.3744,3.3739,3.3737,3.3715,3.3715,3.3715,3.3741,3.3698,3.3699,3.3699,3.37,3.3806,3.3808,0,0,0,0,0,0,3.3813,3.3807,3.3811,3.3809,3.3789,3.3769,3.3765,3.3769,3.3744,3.3738,3.3738,3.3734,3.3715,3.3714,3.3714,3.3769,3.3699,3.37,3.37,3.3804,3.3807,3.3809,0,0,0,0,0,0,3.3813,3.3814,3.3812,3.3807,3.3806,3.3772,3.3777,3.377,3.377,3.374,3.3733,3.3745,3.3713,3.3712,3.3737,3.3767,3.37,3.3701,3.3801,3.3805,3.3808,3.388,0,0,0,0,0,0,3.3813,3.3814,3.3833,3.3808,3.3806,3.3836,3.3779,3.3771,3.3772,3.3765,3.3744,3.3739,3.3711,3.3736,3.3738,3.3767,3.3702,3.3798,3.3803,3.3807,3.3875,3.3886,3.3895,0,0,0,0,0,3.3813,3.3854,3.3834,3.3835,3.3828,3.3838,3.3837,3.3804,3.3774,3.3793,3.3773,3.3739,3.3764,3.3739,3.374,3.3771,3.3796,3.3802,3.3806,3.3871,3.3884,3.3895,0,0,0,0,0,0,3.3884,3.3851,3.3827,3.3862,3.3853,3.3826,3.3848,3.3819,3.3819,3.3812,3.3772,3.3768,3.3798,3.3787,3.376,3.3816,3.3774,3.378,3.3823,3.3835,3.3844,3.3846,3.3703,0,0,0,0,0,3.3904,3.3914,3.3884,3.3918,3.3914,3.3882,3.3885,3.3861,3.385,3.3846,3.3828,3.3819,3.3824,3.3829,3.3832,3.3873,3.3867,3.3895,3.3905,3.3913,3.3918,3.3938,3.395,3.3826,3.3826,3.3826,0,0,3.3945,3.3927,3.3937,3.3932,3.3922,3.3933,3.388,3.3894,3.3902,3.3848,3.387,3.3857,3.3844,3.3877,3.389,3.3868,3.3951,3.3919,3.3926,3.3927,3.3945,3.3956,3.3967,3.3829,3.3829,3.3828,0,0,3.4025,3.4013,3.4039,3.403,3.4016,3.3994,3.4,3.3978,3.3967,3.3988,3.3947,3.3956,3.3967,3.3959,3.3956,3.4033,3.4002,3.4035,3.4087,3.4107,3.4117,3.4125,3.4152,3.4162,3.4041,3.4041,3.4041,0,3.4077,3.4093,3.4056,3.4073,3.4072,3.4023,3.4049,3.4042,3.403,3.4031,3.4006,3.4018,3.4006,3.4035,3.4054,3.4054,3.406,3.4037,3.4118,3.4126,3.4134,3.4159,3.4169,3.4045,3.4045,3.4044,3.4044,0,3.4158,3.4169,3.4192,3.418,3.4182,3.4204,3.417,3.4176,3.4152,3.4132,3.4154,3.4138,3.4137,3.4142,3.4119,3.4169,3.4155,3.4125,3.4082,3.415,3.4173,3.4182,3.4051,3.4049,3.4048,3.4047,0,0,3.4282,3.425,3.4259,3.4252,3.4233,3.4241,3.426,3.4258,3.4264,3.4257,3.4272,3.4282,3.4253,3.4251,3.4226,3.4243,3.4304,3.4211,3.421,3.4228,3.4357,3.438,3.4392,3.4283,3.4285,3.4286,3.4358,0,3.4357,3.4387,3.4355,3.4392,3.4401,3.4355,3.4371,3.4361,3.4344,3.4349,3.433,3.4337,3.43,3.4298,3.4313,3.4293,3.4329,3.4288,3.4297,3.4297,3.4301,3.4404,3.4427,3.4496,3.4367,3.4368,3.437,0,3.4448,3.4444,3.4483,3.4459,3.4462,3.4478,3.4473,3.4479,3.4467,3.4453,3.445,3.4419,3.4436,3.4394,3.4417,3.439,3.4391,3.4382,3.4384,3.4383,3.4337,3.4405,3.4517,3.4527,3.4383,3.4382,3.4381,0,3.4534,3.4539,3.4562,3.4558,3.4532,3.4544,3.4534,3.4519,3.452,3.4516,3.4516,3.4515,3.4514,3.4514,3.4484,3.4456,3.451,3.4466,3.4499,3.45,3.4512,3.4512,3.4626,3.4514,3.4514,3.4514,3.4514,0,3.462,3.4645,3.46,3.4614,3.4641,3.4603,3.4631,3.4616,3.4603,3.4613,3.4573,3.4584,3.4544,3.455,3.4527,3.4549,3.4549,3.4538,3.4532,3.4542,3.4543,3.4542,3.4536,3.4517,3.4516,3.4515,3.4515,0,3.4721,3.4691,3.4713,3.4687,3.4681,3.4701,3.4678,3.469,3.467,3.4684,3.4685,3.4653,3.4659,3.4629,3.4629,3.4613,3.4647,3.4633,3.4651,3.4647,3.4681,3.4678,3.4798,3.4811,3.4692,3.4693,3.4694,0,3.4777,3.4795,3.477,3.4774,3.4766,3.4773,3.4773,3.4737,3.4739,3.4726,3.474,3.4742,3.4741,3.4752,3.473,3.473,3.4714,3.4756,3.4714,3.4723,3.4714,3.4714,3.4715,3.4765,3.4767,3.4768,3.4769,0,3.4881,3.4866,3.4867,3.4864,3.4866,3.4862,3.4855,3.4861,3.4822,3.4826,3.4831,3.4831,3.4831,3.4833,3.4829,3.4818,3.4787,3.4782,3.479,3.48,3.481,3.4805,3.4675,3.478,3.4779,3.4778,3.4777,3.4777,3.4961,3.4974,3.4959,3.4962,3.4953,3.4948,3.4957,3.4938,3.4941,3.4938,3.4917,3.4926,3.4912,3.4902,3.4895,3.4901,3.4881,3.4892,3.4895,3.4898,3.4904,3.4809,3.49,3.49,3.4899,3.4899,3.4899,0,3.5062,3.5049,3.5053,3.5044,3.5047,3.5017,3.5008,3.5013,3.5021,3.501,3.5011,3.5016,3.5018,3.4996,3.4995,3.5004,3.499,3.5005,3.5004,3.5002,3.4922,3.4915,3.5017,3.5017,3.5017,3.5017,3.5017,3.5017,3.5115,3.5136,3.5118,3.5134,3.5122,3.5129,3.5127,3.5122,3.5113,3.5121,3.5122,3.5107,3.5092,3.5089,3.509,3.5083,3.5085,3.5105,3.5093,3.5019,3.5008,3.4997,3.499,3.5105,3.5106,3.5172,3.5173,3.5174]}]]